Location: Unspecified
(0.0000°N, 0.0000°E)
Time: 01:32:21
(UTC+00:00)

CORVUS BC1 - Visible Passes

Search period start: 16 May 2026 00:00
Search period end: 26 May 2026 00:00
Orbit: 540 x 556 km, 97.4° (Epoch: 15 May)

Date Brightness Start Highest point End Pass type
(mag) Time Alt. Az. Time Alt. Az. Time Alt. Az.
16 May ? 04:05:26 30° SE 04:07:01 49° E 04:10:51 10° N visible
17 May ? 04:00:24 27° SE 04:02:01 41° E 04:05:45 10° N visible
18 May ? 03:55:21 24° SE 03:57:00 34° E 04:00:37 10° NNE visible
19 May ? 03:50:18 21° ESE 03:52:00 29° E 03:55:26 10° NNE visible
20 May ? 03:45:15 18° ESE 03:46:59 24° E 03:50:13 10° NNE visible
20 May ? 05:20:54 11° WSW 05:21:24 11° WSW 05:22:21 10° W visible
21 May ? 03:40:12 16° ESE 03:41:58 21° E 03:44:57 10° NNE visible
21 May ? 05:15:52 13° WSW 05:16:23 13° WSW 05:18:13 10° WNW visible
22 May ? 03:35:09 14° ESE 03:36:57 17° E 03:39:37 10° NE visible
22 May ? 05:10:49 15° WSW 05:11:22 15° WSW 05:13:43 10° WNW visible
23 May ? 03:30:06 12° ESE 03:31:55 15° ENE 03:34:11 10° NE visible
23 May ? 05:05:45 17° WSW 05:06:21 18° WSW 05:09:05 10° WNW visible
24 May ? 03:25:12 10° ESE 03:26:54 12° ENE 03:28:35 10° NE visible
24 May ? 05:00:42 20° WSW 05:01:19 21° WSW 05:04:22 10° NW visible
25 May ? 03:21:13 10° E 03:21:52 10° ENE 03:22:31 10° ENE visible
25 May ? 04:55:39 24° WSW 04:56:18 25° WSW 04:59:34 10° NW visible
